Weather reports worldwide

Advertisment
St. James's Park, United Kingdom (3770): temperature & dewpoint: 15.02.2017 14:00:00 - 21.02.2017 14:00:00 (GMT)St. James's Park, United Kingdom (3770): temperature -20cm & temperature -100cm: 15.02.2017 14:00:00 - 21.02.2017 14:00:00 (GMT)St. James's Park, United Kingdom (3770): precipitation: 15.02.2017 14:00:00 - 21.02.2017 14:00:00 (GMT)
Date & Time tt [°C] td [°C] tt -20cm [°C] tt -100cm [°C] rr [mm]
21.02.2017 14:00:00 - - - - 0,0
21.02.2017 13:00:00 13,0 9,7 - - 0,0
21.02.2017 12:00:00 12,8 9,8 - - 0,0
21.02.2017 11:00:00 12,1 9,7 - - 0,0
21.02.2017 10:00:00 11,6 9,7 - - 0,0
21.02.2017 09:00:00 11,1 9,6 8,0 7,5 0,0
21.02.2017 08:00:00 10,7 9,6 - - 0,0
21.02.2017 07:00:00 10,4 9,6 - - 0,0
21.02.2017 06:00:00 10,5 9,7 - - 0,0
21.02.2017 05:00:00 10,4 9,8 - - 0,0
21.02.2017 04:00:00 10,9 9,6 - - 0,0
21.02.2017 03:00:00 11,0 8,9 - - 0,0
21.02.2017 02:00:00 11,2 8,9 - - 0,0
21.02.2017 01:00:00 11,4 9,1 - - 0,0
21.02.2017 00:00:00 11,4 9,1 - - 0,0
20.02.2017 23:00:00 12,0 9,5 - - 0,0
20.02.2017 22:00:00 11,9 9,6 - - 0,0
20.02.2017 21:00:00 12,6 10,1 - - 0,0
20.02.2017 20:00:00 13,6 10,3 - - 0,0
20.02.2017 19:00:00 13,6 10,3 - - 0,0
20.02.2017 18:00:00 13,9 10,3 - - 0,0
20.02.2017 17:00:00 14,5 10,3 - - 0,0
20.02.2017 16:00:00 15,7 10,4 - - 0,0
20.02.2017 15:00:00 16,7 11,1 - - 0,0
20.02.2017 14:00:00 17,8 11,4 - - 0,0
20.02.2017 13:00:00 16,2 11,3 - - 0,0
20.02.2017 12:00:00 15,6 11,2 - - 0,0
20.02.2017 11:00:00 12,6 10,3 - - 0,0
20.02.2017 10:00:00 12,7 10,4 - - 0,0
20.02.2017 09:00:00 12,0 10,5 7,4 7,4 0,0
20.02.2017 08:00:00 10,9 9,9 - - 0,0
20.02.2017 07:00:00 10,3 9,5 - - 0,0
20.02.2017 06:00:00 10,1 9,1 - - 0,0
20.02.2017 05:00:00 10,1 8,8 - - 0,0
20.02.2017 04:00:00 10,1 8,9 - - 0,0
20.02.2017 03:00:00 10,2 9,0 - - 0,0
20.02.2017 02:00:00 10,2 9,1 - - 0,0
20.02.2017 01:00:00 10,4 8,9 - - 0,0
20.02.2017 00:00:00 10,2 8,5 - - 0,2
19.02.2017 23:00:00 9,8 8,8 - - 0,0
19.02.2017 22:00:00 9,8 9,1 - - 0,0
19.02.2017 21:00:00 10,0 8,8 - - 0,0
19.02.2017 20:00:00 10,6 7,8 - - 0,0
19.02.2017 19:00:00 10,8 7,6 - - 0,0
19.02.2017 18:00:00 11,0 7,3 - - 0,0
19.02.2017 17:00:00 11,5 7,1 - - 0,0
19.02.2017 16:00:00 11,7 6,7 - - 0,0
19.02.2017 15:00:00 12,0 6,1 - - 0,0
19.02.2017 14:00:00 11,5 5,7 - - 0,0
19.02.2017 13:00:00 10,8 6,2 - - 0,0
19.02.2017 12:00:00 10,3 6,1 - - 0,0
19.02.2017 11:00:00 9,7 6,4 - - 0,0
19.02.2017 10:00:00 8,8 6,4 - - 0,0
19.02.2017 09:00:00 7,5 6,1 7,0 7,2 0,0
19.02.2017 08:00:00 6,2 5,3 - - 0,0
19.02.2017 07:00:00 6,0 5,2 - - 0,0
19.02.2017 06:00:00 5,4 4,8 - - 0,0
19.02.2017 05:00:00 4,9 4,4 - - 0,0
19.02.2017 04:00:00 5,0 3,8 - - 0,0
19.02.2017 03:00:00 5,6 4,0 - - 0,0
19.02.2017 02:00:00 5,6 4,0 - - 0,0
19.02.2017 01:00:00 5,4 4,2 - - 0,0
19.02.2017 00:00:00 5,8 4,1 - - 0,0
18.02.2017 23:00:00 6,5 3,9 - - 0,0
18.02.2017 22:00:00 7,0 3,9 - - 0,0
18.02.2017 21:00:00 7,6 3,9 - - 0,0
18.02.2017 20:00:00 8,3 4,2 - - 0,0
18.02.2017 19:00:00 9,4 4,4 - - 0,0
18.02.2017 18:00:00 10,6 5,3 - - 0,0
18.02.2017 17:00:00 11,4 5,6 - - 0,0
18.02.2017 16:00:00 12,6 5,3 - - 0,0
18.02.2017 15:00:00 11,7 6,5 - - 0,0
18.02.2017 14:00:00 11,3 6,8 - - 0,0
18.02.2017 13:00:00 9,7 6,5 - - 0,0
18.02.2017 12:00:00 9,0 6,4 - - 0,0
18.02.2017 11:00:00 8,0 5,8 - - 0,0
18.02.2017 10:00:00 7,3 5,7 - - 0,0
18.02.2017 09:00:00 7,1 5,5 7,0 7,2 0,0
18.02.2017 08:00:00 7,0 5,6 - - 0,0
18.02.2017 07:00:00 6,7 5,6 - - 0,0
18.02.2017 06:00:00 6,6 5,6 - - 0,0
18.02.2017 05:00:00 6,5 5,5 - - 0,0
18.02.2017 04:00:00 6,2 5,2 - - 0,0
18.02.2017 03:00:00 6,7 4,7 - - 0,0
18.02.2017 02:00:00 6,8 4,9 - - 0,0
18.02.2017 01:00:00 6,4 5,7 - - 0,0
18.02.2017 00:00:00 6,6 5,5 - - 0,0
17.02.2017 23:00:00 6,6 5,4 - - 0,0
17.02.2017 22:00:00 7,9 6,1 - - 0,0
17.02.2017 21:00:00 7,8 5,9 - - 0,0
17.02.2017 20:00:00 8,5 5,9 - - 0,0
17.02.2017 19:00:00 8,5 5,1 - - 0,0
17.02.2017 18:00:00 9,8 5,3 - - 0,0
17.02.2017 17:00:00 11,0 4,8 - - 0,0
17.02.2017 16:00:00 12,8 4,5 - - 0,0
17.02.2017 15:00:00 12,8 5,5 - - 0,0
17.02.2017 14:00:00 13,2 5,2 - - 0,0
17.02.2017 13:00:00 13,2 6,0 - - 0,0
17.02.2017 12:00:00 12,7 6,6 - - 0,0
17.02.2017 11:00:00 11,4 7,2 - - 0,0
17.02.2017 10:00:00 9,1 6,6 - - 0,0
17.02.2017 09:00:00 8,6 6,5 6,7 7,0 0,0
17.02.2017 08:00:00 7,9 6,5 - - 0,0
17.02.2017 07:00:00 7,4 6,1 - - 0,0
17.02.2017 06:00:00 8,1 6,2 - - 0,0
17.02.2017 05:00:00 8,5 6,3 - - 0,0
17.02.2017 04:00:00 8,5 6,2 - - 0,0
17.02.2017 03:00:00 8,7 6,4 - - 0,0
17.02.2017 02:00:00 8,7 6,4 - - 0,0
17.02.2017 01:00:00 8,7 6,2 - - 0,0
17.02.2017 00:00:00 8,6 6,1 - - 0,0
16.02.2017 23:00:00 8,9 5,8 - - 0,0
16.02.2017 22:00:00 8,8 5,8 - - 0,2
16.02.2017 21:00:00 9,4 5,4 - - 0,0
16.02.2017 20:00:00 10,0 5,0 - - 0,0
16.02.2017 19:00:00 10,2 4,5 - - 0,0
16.02.2017 18:00:00 10,6 4,6 - - 0,0
16.02.2017 17:00:00 10,9 4,6 - - 0,0
16.02.2017 16:00:00 11,5 5,0 - - 0,0
16.02.2017 15:00:00 11,3 5,3 - - 0,0
16.02.2017 14:00:00 11,7 7,1 - - 0,0
16.02.2017 13:00:00 10,6 6,0 - - 0,0
16.02.2017 12:00:00 10,5 7,2 - - 0,0
16.02.2017 11:00:00 8,8 6,8 - - 0,0
16.02.2017 10:00:00 7,9 6,3 - - 0,0
16.02.2017 09:00:00 7,4 6,2 6,2 7,0 0,0
16.02.2017 08:00:00 6,9 6,2 - - 0,0
16.02.2017 07:00:00 6,9 6,4 - - 0,0
16.02.2017 06:00:00 6,5 5,9 - - 0,0
16.02.2017 05:00:00 7,3 6,3 - - 0,0
16.02.2017 04:00:00 6,9 6,4 - - 0,0
16.02.2017 03:00:00 6,6 5,9 - - 0,2
16.02.2017 02:00:00 7,1 6,0 - - 0,0
16.02.2017 01:00:00 7,5 6,0 - - 0,0
16.02.2017 00:00:00 7,7 6,2 - - 0,0
15.02.2017 23:00:00 7,1 5,7 - - 0,0
15.02.2017 22:00:00 8,3 6,8 - - 0,0
15.02.2017 21:00:00 8,2 6,6 - - 0,0
15.02.2017 20:00:00 8,7 7,0 - - 0,0
15.02.2017 19:00:00 7,9 6,3 - - 0,0
15.02.2017 18:00:00 8,9 7,2 - - 0,0
15.02.2017 17:00:00 9,4 7,6 - - 0,2
15.02.2017 16:00:00 9,9 7,7 - - 0,0
15.02.2017 15:00:00 9,6 7,9 - - 0,8
15.02.2017 14:00:00 10,8 8,6 - - 0,0

tt = temperature
td = dewpoint
tt -20cm = temperature -20cm
tt -100cm = temperature -100cm
rr = precipitation

Next stations